Location: *
(51.4660°N, 0.3360°W)
Time: 11:39:06
(UTC+00:00)

GP-B - Pass Details

Date: 19 September 2019
Orbit: 631 x 635 km, 89.8° (Epoch: 14 October)

Event Time Altitude Azimuth Distance (km) Brightness Sun altitude
Rises 19:26:33 0° 357° (N) 2,942 6.8 -12.9°
Reaches altitude 10° 19:28:50 10° 352° (N) 2,029 6.1 -13.2°
Maximum altitude 19:33:08 50° 278° (W) 807 4.1 -13.9°
Drops below altitude 10° 19:37:25 10° 203° (SSW) 2,011 5.7 -14.5°
Sets 19:39:39 0° 198° (SSW) 2,914 6.5 -14.8°
